WetterOnline ( https://www.wetteronline.de )

Wetter aktuell Kemmern

Aktuelles Wetter: Bamberg (243m)

6-stündlich | Neueste Meldungen
Ortszeit Temperatur Wetter
So, 12.07. 20:00 20.8° C fast wolkenlos
So, 12.07. 14:00 21.9° C fast wolkenlos
So, 12.07. 8:00 12.9° C wolkenlos
So, 12.07. 2:00 7.4° C wolkenlos
Sa, 11.07. 20:00 19.9° C wolkenlos
Sa, 11.07. 14:00 20.1° C leicht bewölkt
Sa, 11.07. 8:00 15.0° C bewölkt
Sa, 11.07. 2:00 16.3° C bedeckt
Ortszeit Temperatur Wetter
So, 12.07. 20:30 20.2° C wolkenlos
So, 12.07. 20:20 20.2° C wolkenlos
So, 12.07. 20:10 20.6° C wolkenlos
So, 12.07. 20:00 20.8° C fast wolkenlos
So, 12.07. 19:50 20.8° C fast wolkenlos
So, 12.07. 19:40 21.2° C leicht bewölkt
So, 12.07. 19:30 22.4° C bewölkt
So, 12.07. 19:00 22.5° C wolkig
So, 12.07. 18:30 21.7° C leicht bewölkt
So, 12.07. 18:00 21.9° C wolkig
So, 12.07. 17:30 23.5° C bewölkt
Ortszeit Relative Feuchte Sichtweite
So, 12.07. 20:00 39% >70 km
So, 12.07. 14:00 28% 65 km
So, 12.07. 8:00 67% 65 km
So, 12.07. 2:00 95% 55 km
Sa, 11.07. 20:00 36% >70 km
Sa, 11.07. 14:00 41% >70 km
Sa, 11.07. 8:00 75% >70 km
Sa, 11.07. 2:00 73% 65 km
Ortszeit Relative Feuchte Sichtweite
So, 12.07. 20:30 44% 60 km
So, 12.07. 20:20 44% -
So, 12.07. 20:10 42% -
So, 12.07. 20:00 39% >70 km
So, 12.07. 19:50 39% -
So, 12.07. 19:40 37% -
So, 12.07. 19:30 34% 60 km
So, 12.07. 19:00 33% >70 km
So, 12.07. 18:30 37% 65 km
So, 12.07. 18:00 35% 60 km
So, 12.07. 17:30 33% >70 km
Ortszeit Niederschlagsmenge Niederschlagsart
So, 12.07. 20:00 0.0 l/m2 in 12 Std. -
So, 12.07. 14:00 0.0 l/m2 in 6 Std. -
So, 12.07. 8:00 0.0 l/m2 in 12 Std. -
So, 12.07. 2:00 0.0 l/m2 in 6 Std. -
Sa, 11.07. 20:00 0.0 l/m2 in 12 Std. -
Sa, 11.07. 14:00 0.0 l/m2 in 6 Std. -
Sa, 11.07. 8:00 0.1 l/m2 in 12 Std. -
Sa, 11.07. 2:00 0.1 l/m2 in 6 Std. Regen
Ortszeit Niederschlagsmenge Niederschlagsart
So, 12.07. 20:30 0.0 l/m2 in 1 Std. -
So, 12.07. 20:20 keine Meldung -
So, 12.07. 20:10 keine Meldung -
So, 12.07. 20:00 0.0 l/m2 in 1 Std. -
So, 12.07. 19:50 keine Meldung -
So, 12.07. 19:40 keine Meldung -
So, 12.07. 19:30 0.0 l/m2 in 1 Std. -
So, 12.07. 19:00 0.0 l/m2 in 1 Std. -
So, 12.07. 18:30 0.0 l/m2 in 1 Std. -
So, 12.07. 18:00 0.0 l/m2 in 1 Std. -
So, 12.07. 17:30 0.0 l/m2 in 1 Std. -
Ortszeit Stärke Spitze Richtung
km/h Bft. km/h Grad Sektor
So, 12.07. 20:00 11 2 32 30° NO
So, 12.07. 14:00 11 2 22 360° N
So, 12.07. 8:00 6 1 11 340° N
So, 12.07. 2:00 4 1 29 60° NO
Sa, 11.07. 20:00 13 3 37 340° N
Sa, 11.07. 14:00 13 3 28 340° N
Sa, 11.07. 8:00 11 2 25 340° N
Sa, 11.07. 2:00 6 1 33 10° N
Ortszeit Stärke Spitze Richtung
km/h Bft. km/h Grad Sektor
So, 12.07. 20:30 9 2 17 50° NO
So, 12.07. 20:20 9 2 - 50° NO
So, 12.07. 20:10 11 2 - 40° NO
So, 12.07. 20:00 11 2 29 30° NO
So, 12.07. 19:50 11 2 - 30° NO
So, 12.07. 19:40 7 2 - 10° N
So, 12.07. 19:30 11 2 29 10° N
So, 12.07. 19:00 9 2 24 50° NO
So, 12.07. 18:30 9 2 24 30° NO
So, 12.07. 18:00 13 3 31 30° NO
So, 12.07. 17:30 11 2 32 360° N
Ortszeit Untergrenze Bedeckung Gattung
total tief tief mittel hoch
So, 12.07. 20:00 2700 m 1/8 1/8 - - -
So, 12.07. 14:00 2100 m 0/8 0/8 - - -
So, 12.07. 8:00 - 0/8 0/8 - - -
So, 12.07. 2:00 - 0/8 0/8 - - -
Sa, 11.07. 20:00 - 0/8 0/8 - - -
Sa, 11.07. 14:00 1500 m 2/8 5/8 - - -
Sa, 11.07. 8:00 2100 m 7/8 7/8 - - -
Sa, 11.07. 2:00 1500 m 8/8 8/8 - - -
Ortszeit Bedeckungsgrad in Achtel und Wolkenuntergrenze
So, 12.07. 20:30 keine Wolken
So, 12.07. 20:20 keine Wolken
So, 12.07. 20:10 keine Wolken
So, 12.07. 20:00 1(2700m)
So, 12.07. 19:50 1(2700m)
So, 12.07. 19:40 3(2700m)
So, 12.07. 19:30 7(2700m)
So, 12.07. 19:00 1(1800m) 5(2400m)
So, 12.07. 18:30 2(2100m)
So, 12.07. 18:00 2(2100m) 5(2700m)
So, 12.07. 17:30 7(2400m)
Ortszeit Luftdruck NN (hPa) Tendenz (hPa in 3 Std.)
So, 12.07. 20:00 1025 - 0,1
So, 12.07. 14:00 1026 - 0,4
So, 12.07. 8:00 1027 + 1,1
So, 12.07. 2:00 1026 + 0,6
Sa, 11.07. 20:00 1023 + 0,6
Sa, 11.07. 14:00 1022 + 0,5
Sa, 11.07. 8:00 1021 + 1,6
Sa, 11.07. 2:00 1019 + 1,8
Ortszeit Luftdruck NN (hPa) Tendenz (hPa in 3 Std.)
So, 12.07. 20:30 1025 - 0,2
So, 12.07. 20:20 1025 keine Meldung
So, 12.07. 20:10 1025 keine Meldung
So, 12.07. 20:00 1025 - 0,1
So, 12.07. 19:50 1025 keine Meldung
So, 12.07. 19:40 1025 keine Meldung
So, 12.07. 19:30 1025 - 0,2
So, 12.07. 19:00 1025 - 0,6
So, 12.07. 18:30 1025 - 0,4
So, 12.07. 18:00 1025 - 0,6
So, 12.07. 17:30 1025 - 0,8
Ortszeit Schneehöhe (cm)
So, 12.07. 20:00 -
So, 12.07. 14:00 -
So, 12.07. 8:00 -
So, 12.07. 2:00 -
Sa, 11.07. 20:00 -
Sa, 11.07. 14:00 -
Sa, 11.07. 8:00 -
Sa, 11.07. 2:00 -
Ortszeit Schneehöhe (cm)
So, 12.07. 20:30 -
So, 12.07. 20:20 -
So, 12.07. 20:10 -
So, 12.07. 20:00 -
So, 12.07. 19:50 -
So, 12.07. 19:40 -
So, 12.07. 19:30 -
So, 12.07. 19:00 -
So, 12.07. 18:30 -
So, 12.07. 18:00 -
So, 12.07. 17:30 -
Link zu dieser Seite / Seite empfehlen

Das Wetter in ...